Погода в Ярцеве

Россия / Красноярский край     60°14′51″N   90°12′56″E
темп.,
°C
ветер,
м/с
пор.,
м/с
влажн.,
%
обл.,
%
осадки,
мм/ч
давл.,
гПа
погр.,
м
26 февраля, пт
пт2601:00−23ююз2898100 0.3 1014351
04:00−22ююз2898100 0.3 1014537
07:00−22ююз3897100 0.5 1016609
10:00−22юз3794100 0.2 1017772
13:00−21юз4690100 0.4 1019961
16:00−21юз4689100 0.2 10211026
19:00−23юз2698100 0.3 1023300
22:00−23юз2798100 0.1 1025515
27 февраля, сб
сб2701:00−24юз2698100 0.2 1025391
04:00−26юз2699100 0.1 1026296
07:00−27юз2698100 0.3 1028376
10:00−27юз3594100 0.1 1029585
13:00−26юз3590100 0.3 1030814
16:00−25юз3590100 0.1 1030850
19:00−27зюз1399100 0.2 103294
22:00−28ююз2499100 0.1 1032147
28 февраля, вс
вс2801:00−28ююз2399100 0.2 1032115
04:00−28ююз2599100 0.1 1033194
07:00−28ю2399100 0.3 1034114
10:00−27ююз2496100 0.1 1034337
13:00−24юз2489100 0.1 1035701
16:00−23юз2389100 0.1 1035714
19:00−26ю1199100 0.1 103619
22:00−28ююв12100100 0.1 103619
1 марта, пн
пн101:00−29юв2299100 0.1 103620
04:00−30вюв2298100 0.0 103528
07:00−31вюв229681 0.0 103428
10:00−26вюв24926 0.0 1032177
13:00−20юв258912 0.0 1029416
16:00−16юв368417 0.0 1026572
19:00−20в239119 0.0 102429
22:00−22в238714 0.0 102349
2 марта, вт
вт201:00−24в23849 0.0 102235
04:00−25в228114 0.0 102020
07:00−25в227935 0.0 101920
10:00−20вюв147778 0.0 1018169
13:00−14юв377289 0.0 1017588
16:00−13юв377997 0.0 1015700
19:00−15вюв288897 0.1 1015342
22:00−17вюв3894100 0.1 1015371